Location: Bern�tre
(50.1974°N, 2.0915°E)
Time: 06:23:13
(UTC+00:00)

H-2A R/B - Pass Details

Date: 18 September 2020
Orbit: 734 x 836 km, 98.2° (Epoch: 27 October)

Event Time Altitude Azimuth Distance (km) Brightness Sun altitude
Rises 19:14:14 0° 177° (S) 3,161 5.0 -12.8°
Reaches altitude 10° 19:16:32 10° 182° (S) 2,250 4.3 -13.2°
Maximum altitude 19:21:23 54° 260° (W) 912 2.7 -13.9°
Drops below altitude 10° 19:26:22 10° 338° (NNW) 2,318 5.1 -14.7°
Sets 19:28:47 0° 343° (NNW) 3,265 5.8 -15.0°
